Location: Kelowna
(49.9000°N, 119.4830°W)
Time: 13:06:34
(UTC-07:00)

Envisat - Visible Passes

Search period start: 16 July 2018 00:00
Search period end: 26 July 2018 00:00
Orbit: 764 x 766 km, 98.2° (Epoch: 16 July)

Date Brightness Start Highest point End Pass type
(mag) Time Alt. Az. Time Alt. Az. Time Alt. Az.
17 Jul 5.8 21:44:58 10° WSW 21:47:11 13° W 21:49:23 10° WNW visible
20 Jul 5.7 21:32:49 10° SW 21:35:51 16° W 21:38:54 10° NW visible
25 Jul 5.9 21:48:47 10° WSW 21:50:29 12° W 21:52:12 10° WNW visible
